SCOUT X-4 R/B, 1739

Orbit data source: Space-Track

SCOUT X-4 R/B, 1739 is space debris in LEO originally from a launch on Fri, 19 Nov 1965 UTC launched from the Wallops Island (WLPIS). Debris objects in space refer to the collection of defunct objects orbiting the Earth. Examples of debris include non-operational satellites, rocket bodies, and fragments generated from explosions, collisions, or faulty payload assembly.

Loading next visibility...
SCOUT X-4 R/B details
Identifier
1739, 1965-093B
Orbit
LEO
Last TLE update3 hours ago
Origin
Flag of USNASA LaRC (US)
ManufacturerABL
MissionSpacecraft
Bus & MotorALTAIR, Unknown motor
Mass33 kg wet, 33 kg dry
Launch date (UTC)
1965-11-19 (59 years ago)
Launch vehicleUnknown
Launch site
Wallops Island (WLPIS)
Object type
Payload
Rocket body
Debris
Shape & HBRCyl, 1.5 m
Radar Cross Section0.687 m², Medium (>0.1 m² and < 1m²)

Expand to show TLE details & history

TLE from 3 hours ago
0 SCOUT X-4 R/B
1  1739U 65093B   25023.56649560  .00002846  00000-0  67357-3 0  9997
2  1739  59.7026 185.5647 0086310 138.7938 221.9665 14.54213060116953
Epoch: 2025-01-23T13:35Z
Definitive object data (Epoch: 2025-01-23T13:35:45.219Z)
Latitude
Longitude-141.51589°
Altitude759.18 km
Speed7.451 km/s
True Right ascension12h 22m 15s
True Declination0° 00' 00"
Sunlit
Object was in full shadow at TLE epoch
Visualization TLE readout
Latitude-51.73909°
Longitude85.55429°
Altitude747.138 km
Speed7.472 km/s
Apparent Right ascension04h 35m 38s
Apparent Declination-47° 01' 42"
Sunlit
Object is in daylight
Visualization observer readout
Local Sidereal Time17:34:14
Azimuth128.684° SE
Elevation-77.241°
Doppler factor1
Orbital elements
Apogee altitude772.379 km
Perigee altitude650.003 km
Semi-major axis7,089.328 km
Eccentricity0.008631
Inclination59.7026°
RAAN185.5647°
Arg. of periapsis138.7938°
True anomaly221.31041°
Mean anomaly221.9665°
Eccentric anomaly221.63793°
Mean motion3.6361 °/min
BSTAR0.00067357
Orbital period99.01 mins
Loading maneuver chart data...
Loading historical data...
Loading historical data...
Loading historical data...
Loading historical data...
Loading historical data...
Loading historical data...
Loading historical data...
Other satellites on launch #93 in the year 1965 (1965-11-19 UTC)

SCOUT X-4 R/B Visibility forecast

Observer location: undefined°, undefined

Span
Click to sort rows by Start time (UTC) header in descending order
Start Az.
Max El. time (UTC)
Max El. Az.
Max El.
End time (UTC)
End Az.
4 mins2025-01-23 19:01:41.778Z359.562° N2025-01-23 19:03:41.778Z25.514° NE13.059°2025-01-23 19:05:41.778Z52.167° ENE
8 mins2025-01-23 20:43:41.778Z330.109° NNW2025-01-23 20:47:41.778Z78.621° E39.885°2025-01-23 20:51:41.778Z128.301° SE
4 mins2025-01-23 22:27:41.778Z266.655° W2025-01-23 22:29:41.778Z236.048° WSW15.748°2025-01-23 22:31:41.778Z209.015° SW
8 mins2025-01-24 12:51:41.778Z222.766° SW2025-01-24 12:55:41.778Z11.473° NNE43.757°2025-01-24 12:59:41.778Z37.53° NE
4 mins2025-01-24 14:36:41.778Z303.645° NW2025-01-24 14:38:41.778Z332.505° NNW16.409°2025-01-24 14:40:41.778Z0.105° NNE
|